Flag for Germany Weather past 2 weeks in Cuxhaven, Lower Saxony, Germany

Now
48 °F

Passing clouds.


Feels Like: 44 °F
Forecast: 51 / 59 °F
Wind: 10 mph from Southwest

Location: Nordholz

Current Time: Oct 26, 2014 at 7:22:05 AM

Latest Report: Oct 26, 2014 at 6:20 AM


Visibility: N/A

Pressure: 30.15 "Hg

Humidity: 87%

Dew point: 45 °F

Location of CuxhavenLocation

Historic Weather in Cuxhaven — Graph

°F

Cuxhaven temperature yesterday

Maximum temperature yesterday: 57 °F (at 1:20 PM)
Minimum temperature yesterday: 48 °F (at 8:20 PM)
Average temperature yesterday: 52 °F

Past Weeks' High & Low Weather Summary

 TemperatureHumidityPressure
High70 °F (Oct 19, 1:20 PM)100% (Oct 11, 8:48 AM)30.15 "Hg (Oct 11, 8:48 AM)
Low46 °F (Oct 11, 7:20 AM)56% (Oct 11, 4:20 PM)29.33 "Hg (Oct 21, 5:20 PM)
Average55 °F89%29.84 "Hg
* Reported Oct 11 6:20 AM — Oct 26 5:20 AM, Cuxhaven, Weather by CustomWeather, © 2014

Note: Actual official high and low records may vary slightly from our data, if they occured in-between our weather recording intervals... More about our weather records

Advertising

Cuxhaven weather history for previous 24 hours

 ConditionsComfort  
Time TempWeatherWind HumidityBarometerVisibility
5:20 AM
Oct 26
48 °FPassing clouds.12 mph87%30.15 "HgN/A
4:20 AM48 °FPassing clouds.9 mph94%30.15 "HgN/A
3:20 AM48 °FPassing clouds.8 mph94%30.15 "HgN/A
2:20 AM48 °FPassing clouds.7 mph94%30.15 "HgN/A
2:20 AM50 °FPassing clouds.7 mph94%30.15 "HgN/A
1:20 AM50 °FPassing clouds.6 mph94%30.12 "HgN/A
12:20 AM52 °FPassing clouds.6 mph88%30.12 "HgN/A
11:20 PM
Oct 25
50 °FPassing clouds.6 mph88%30.12 "HgN/A
10:20 PM52 °FPassing clouds.7 mph82%30.09 "HgN/A
9:20 PM50 °FPassing clouds.7 mph94%30.09 "HgN/A
8:20 PM48 °FPassing clouds.6 mph94%30.09 "HgN/A
7:20 PM50 °FPassing clouds.5 mph88%30.09 "HgN/A
6:20 PM54 °FPartly sunny.6 mph94%30.07 "HgN/A
5:20 PM55 °FBroken clouds.7 mph82%30.07 "HgN/A
4:20 PM57 °FPartly sunny.7 mph82%30.04 "HgN/A
3:20 PM57 °FPartly sunny.9 mph88%30.04 "HgN/A
2:20 PM57 °FBroken clouds.10 mph88%30.04 "Hg6 mi
1:20 PM57 °FBroken clouds.12 mph88%30.04 "Hg4 mi
12:20 PM55 °FFog.12 mph94%30.01 "Hg3 mi
11:53 AM54 °FFog.9 mph100%30.01 "Hg2 mi
11:20 AM54 °FFog.12 mph94%30.01 "Hg2 mi
10:53 AM52 °FFog.10 mph100%30.01 "Hg1 mi
10:20 AM52 °FFog.10 mph100%30.01 "Hg1 mi
9:51 AM52 °FFog.10 mph94%30.01 "Hg1 mi
9:20 AM52 °FFog.12 mph94%29.98 "Hg1 mi
8:57 AM52 °FFog.12 mph94%29.98 "Hg1 mi
8:20 AM52 °FFog.12 mph94%29.98 "Hg1 mi
7:45 AM52 °FDrizzle. Fog.10 mph94%29.95 "Hg2 mi
7:20 AM50 °FDrizzle. Fog.10 mph100%29.95 "Hg3 mi
Weather by CustomWeather, © 2014

See weather overviewHow to use our weather pages